GW3642 Weather Reports


time (UTC)temp
C
wind
direction
speed
KPH
gust
KPH
rain 1hr
cm
rain 24hr
cm
rain mn
cm
humidity
%
barometer
mb
20260510204510 17 316 6.4 14.5 0.00 0.00 0.00 43 1015.7
20260510204001 17 7 8.0 14.5 0.00 0.00 0.00 42 1015.5
20260510203505 17 18 4.8 11.3 0.00 0.00 0.00 40 1015.7
20260510203010 17 80 1.6 11.3 0.00 0.00 0.00 42 1015.6
20260510202506 17 11 6.4 16.1 0.00 0.00 0.00 42 1015.7
20260510202003 17 158 4.8 16.1 0.00 0.00 0.00 44 1015.7
20260510201509 17 19 4.8 14.5 0.00 0.00 0.00 42 1015.7
20260510201007 17 81 3.2 16.1 0.00 0.00 0.00 44 1015.9
20260510200506 17 353 3.2 17.7 0.00 0.00 0.00 43 1015.8
20260510200012 17 27 6.4 22.5 0.00 0.00 0.00 43 1015.9
20260510195507 17 8 11.3 22.5 0.00 0.00 0.00 42 1016.0
20260510195006 16 89 4.8 20.9 0.00 0.00 0.00 42 1016.0
20260510194513 17 24 3.2 16.1 0.00 0.00 0.00 44 1015.9
20260510194005 16 309 3.2 17.7 0.00 0.00 0.00 44 1016.0
20260510193506 17 300 8.0 17.7 0.00 0.00 0.00 43 1016.1
20260510193014 17 39 3.2 14.5 0.00 0.00 0.00 49 1016.1
20260510192505 17 285 4.8 14.5 0.00 0.00 0.00 45 1016.1
20260510192006 17 21 1.6 14.5 0.00 0.00 0.00 42 1016.1
20260510191516 17 316 8.0 16.1 0.00 0.00 0.00 46 1016.2
20260510191003 17 333 6.4 16.1 0.00 0.00 0.00 42 1016.0
20260510190511 17 293 9.7 17.7 0.00 0.00 0.00 42 1015.9
20260510190020 17 276 8.0 17.7 0.00 0.00 0.00 41 1015.9
20260510185506 17 358 4.8 17.7 0.00 0.00 0.00 41 1015.9
20260510185002 17 320 6.4 17.7 0.00 0.00 0.00 40 1015.8
20260510184515 17 311 4.8 19.3 0.00 0.00 0.00 42 1015.9
20260510184009 17 38 8.0 19.3 0.00 0.00 0.00 42 1015.8
20260510183508 17 34 4.8 9.7 0.00 0.00 0.00 42 1015.7
20260510183018 17 51 1.6 9.7 0.00 0.00 0.00 41 1015.8
20260510182507 17 259 0.0 14.5 0.00 0.00 0.00 42 1015.9
20260510182006 16 96 3.2 16.1 0.00 0.00 0.00 45 1015.9
20260510181517 16 3 4.8 16.1 0.00 0.00 0.00 44 1015.8
20260510181007 17 128 6.4 12.9 0.00 0.00 0.00 45 1015.8
20260510180504 17 326 4.8 17.7 0.00 0.00 0.00 46 1015.8
20260510180007 16 325 1.6 17.7 0.00 0.00 0.00 49 1015.8
20260510175506 16 347 1.6 17.7 0.00 0.00 0.00 47 1015.6
20260510175003 16 96 6.4 17.7 0.00 0.00 0.00 47 1015.5
20260510174513 16 13 4.8 14.5 0.00 0.00 0.00 47 1015.4
20260510174007 16 64 8.0 16.1 0.00 0.00 0.00 48 1015.3
20260510173508 16 59 9.7 16.1 0.00 0.00 0.00 47 1015.3
20260510173016 16 23 3.2 12.9 0.00 0.00 0.00 49 1015.4
20260510172506 16 8 4.8 14.5 0.00 0.00 0.00 49 1015.5
20260510172006 16 302 3.2 14.5 0.00 0.00 0.00 51 1015.5
20260510171520 16 321 6.4 12.9 0.00 0.00 0.00 48 1015.4
20260510171007 16 8 8.0 12.9 0.00 0.00 0.00 45 1015.5
20260510170506 16 90 3.2 12.9 0.00 0.00 0.00 49 1015.5
20260510170023 16 46 3.2 12.9 0.00 0.00 0.00 49 1015.5
20260510165507 16 27 4.8 12.9 0.00 0.00 0.00 44 1015.7
20260510165007 16 325 6.4 12.9 0.00 0.00 0.00 53 1015.8
20260510164507 16 60 4.8 11.3 0.00 0.00 0.00 55 1015.7
20260510164004 16 333 3.2 11.3 0.00 0.00 0.00 54 1015.7
20260510163505 16 312 3.2 9.7 0.00 0.00 0.00 52 1015.6
20260510163011 16 16 4.8 12.9 0.00 0.00 0.00 52 1015.7
20260510162503 16 325 6.4 12.9 0.00 0.00 0.00 52 1015.7
20260510162007 16 34 4.8 16.1 0.00 0.00 0.00 52 1015.6
20260510161518 16 30 8.0 16.1 0.00 0.00 0.00 52 1015.6
20260510161007 16 263 3.2 12.9 0.00 0.00 0.00 57 1015.4
20260510160508 16 71 4.8 12.9 0.00 0.00 0.00 52 1015.5
20260510160020 16 94 3.2 17.7 0.00 0.00 0.00 60 1015.4
20260510155506 16 39 6.4 17.7 0.00 0.00 0.00 57 1015.4
20260510155007 15 335 4.8 14.5 0.00 0.00 0.00 58 1015.4
20260510154524 15 310 8.0 14.5 0.00 0.00 0.00 53 1015.3
20260510154007 15 57 4.8 12.9 0.00 0.00 0.00 56 1015.2
20260510153508 15 67 4.8 14.5 0.00 0.00 0.00 59 1015.2
20260510153037 15 293 4.8 14.5 0.00 0.00 0.00 58 1015.2
20260510152504 15 68 4.8 12.9 0.00 0.00 0.00 56 1015.1
20260510152003 15 56 3.2 12.9 0.00 0.00 0.00 57 1015.0
20260510151525 15 347 3.2 11.3 0.00 0.00 0.00 59 1015.0
20260510151003 15 10 4.8 11.3 0.00 0.00 0.00 55 1014.9
20260510150507 15 62 3.2 14.5 0.00 0.00 0.00 57 1014.8
20260510150017 15 79 4.8 14.5 0.00 0.00 0.00 57 1014.8
20260510145506 14 53 3.2 14.5 0.00 0.00 0.00 58 1014.7
20260510145009 14 85 6.4 14.5 0.00 0.00 0.00 59 1014.6
20260510144522 14 79 8.0 12.9 0.00 0.00 0.00 59 1014.7
20260510144006 14 90 3.2 11.3 0.00 0.00 0.00 58 1014.8
20260510143514 14 89 4.8 11.3 0.00 0.00 0.00 57 1014.7
20260510143023 13 89 6.4 12.9 0.00 0.00 0.00 58 1014.5
20260510142510 13 144 4.8 12.9 0.00 0.00 0.00 58 1014.3
20260510142008 13 87 6.4 12.9 0.00 0.00 0.00 60 1014.2
20260510141530 13 334 3.2 14.5 0.00 0.00 0.00 60 1014.2
20260510141008 13 349 4.8 14.5 0.00 0.00 0.00 59 1014.2
20260510140507 13 97 6.4 14.5 0.00 0.00 0.00 59 1014.0
20260510140016 13 9 4.8 11.3 0.00 0.00 0.00 60 1014.1
20260510135504 13 87 4.8 14.5 0.00 0.00 0.00 62 1014.2
20260510135007 13 8 6.4 14.5 0.00 0.00 0.00 61 1014.1
20260510134521 12 1 4.8 12.9 0.00 0.00 0.00 65 1014.0
20260510134007 12 59 4.8 11.3 0.00 0.00 0.00 64 1013.8
20260510133506 12 98 6.4 11.3 0.00 0.00 0.00 63 1013.9
20260510133025 12 110 6.4 11.3 0.00 0.00 0.00 64 1013.8
20260510132508 12 20 4.8 11.3 0.00 0.00 0.00 67 1013.6
20260510132011 11 75 4.8 11.3 0.00 0.00 0.00 68 1013.8
20260510131523 12 352 3.2 12.9 0.00 0.00 0.00 66 1014.0
20260510131008 11 14 3.2 12.9 0.00 0.00 0.00 66 1013.8
20260510130507 11 358 6.4 12.9 0.00 0.00 0.00 67 1013.6
20260510130041 11 41 0.0 6.4 0.00 0.00 0.00 68 1013.7
20260510125503 11 56 0.0 6.4 0.00 0.00 0.00 69 1013.6
20260510125008 11 78 1.6 6.4 0.00 0.00 0.00 68 1013.6
20260510124519 11 338 1.6 8.0 0.00 0.00 0.00 69 1013.6
20260510124007 11 36 1.6 8.0 0.00 0.00 0.00 69 1013.4
20260510123505 11 30 4.8 8.0 0.00 0.00 0.00 68 1013.4
20260510123020 11 29 4.8 8.0 0.00 0.00 0.00 67 1013.2
20260510122506 11 356 1.6 6.4 0.00 0.00 0.00 67 1013.3
20260510122005 11 78 1.6 6.4 0.00 0.00 0.00 67 1013.2
20260510121504 11 17 1.6 8.0 0.00 0.00 0.00 67 1013.0
20260510121002 10 58 1.6 8.0 0.00 0.00 0.00 69 1012.9
20260510120503 10 33 0.0 4.8 0.00 0.00 0.00 70 1012.9
20260510120023 10 15 1.6 4.8 0.00 0.00 0.00 69 1012.9
20260510115504 10 94 1.6 6.4 0.00 0.00 0.00 70 1012.8
20260510115004 10 137 0.0 8.0 0.00 0.00 0.00 70 1012.9
20260510114515 10 69 3.2 8.0 0.00 0.00 0.00 69 1012.7
20260510114010 10 336 0.0 4.8 0.00 0.00 0.00 70 1012.6
20260510113505 10 62 0.0 4.8 0.00 0.00 0.00 70 1012.3
20260510113015 10 18 1.6 4.8 0.00 0.00 0.00 70 1012.2
20260510112507 10 77 1.6 3.2 0.00 0.00 0.00 69 1012.1
20260510112007 10 89 0.0 6.4 0.00 0.00 0.00 70 1012.2
20260510111523 10 76 0.0 6.4 0.00 0.00 0.00 71 1012.1
20260510111006 10 345 0.0 3.2 0.00 0.00 0.00 71 1012.1
20260510110509 10 124 0.0 3.2 0.00 0.00 0.00 71 1012.0
20260510110009 10 137 0.0 3.2 0.00 0.00 0.00 71 1011.7
20260510105504 10 32 0.0 3.2 0.00 0.00 0.00 72 1011.5
20260510105002 10 139 0.0 4.8 0.00 0.00 0.00 71 1011.4
20260510104510 10 92 0.0 6.4 0.00 0.00 0.00 71 1011.4
20260510104004 10 115 0.0 6.4 0.00 0.00 0.00 71 1011.5
20260510103504 11 27 1.6 6.4 0.00 0.00 0.00 71 1011.4
20260510103016 11 29 0.0 6.4 0.00 0.00 0.00 71 1011.4
20260510102507 11 18 1.6 8.0 0.00 0.00 0.00 71 1011.4
20260510102007 11 319 3.2 8.0 0.00 0.00 0.00 70 1011.1
20260510101530 11 105 1.6 6.4 0.00 0.00 0.00 71 1011.0
20260510101006 11 311 0.0 8.0 0.00 0.00 0.00 70 1011.4
20260510100505 11 188 1.6 9.7 0.00 0.00 0.00 70 1011.3
20260510100026 11 325 0.0 9.7 0.00 0.00 0.00 69 1010.8
20260510095506 12 333 3.2 9.7 0.00 0.00 0.00 70 1010.6
20260510095008 12 311 3.2 9.7 0.00 0.00 0.00 69 1010.5
20260510094528 12 330 3.2 9.7 0.00 0.00 0.00 69 1010.4
20260510094011 12 44 1.6 9.7 0.00 0.00 0.00 69 1010.2
20260510093502 12 44 1.6 6.4 0.00 0.03 0.00 69 1010.3
20260510093011 12 319 1.6 8.0 0.00 0.03 0.00 69 1010.2
20260510092505 12 8 1.6 11.3 0.00 0.03 0.00 69 1010.2
20260510092007 12 35 3.2 11.3 0.00 0.03 0.00 68 1010.0
20260510091526 12 320 1.6 12.9 0.00 0.03 0.00 68 1010.1
20260510091006 12 122 1.6 12.9 0.00 0.03 0.00 68 1010.0
20260510090506 12 52 4.8 12.9 0.00 0.03 0.00 67 1009.9
20260510090026 12 29 4.8 12.9 0.00 0.03 0.00 68 1009.8
20260510085505 13 6 4.8 11.3 0.00 0.03 0.00 67 1009.7
20260510085006 13 122 3.2 19.3 0.00 0.03 0.00 68 1009.5
20260510084527 13 30 3.2 19.3 0.00 0.03 0.00 68 1009.4
20260510084010 13 296 4.8 11.3 0.00 0.03 0.00 68 1009.3
20260510083508 13 15 3.2 12.9 0.00 0.03 0.00 69 1009.2
20260510083027 13 338 3.2 12.9 0.00 0.03 0.00 69 1009.1
20260510082508 13 27 6.4 12.9 0.00 0.03 0.00 70 1009.1
20260510082010 13 311 3.2 11.3 0.00 0.03 0.00 70 1008.8
20260510081511 13 310 4.8 11.3 0.00 0.03 0.00 70 1008.9
20260510081006 13 30 3.2 11.3 0.00 0.03 0.00 70 1009.1
20260510080505 13 327 3.2 11.3 0.00 0.03 0.00 70 1009.0
20260510080017 13 302 3.2 9.7 0.00 0.03 0.00 70 1008.8
20260510075505 14 338 1.6 9.7 0.00 0.03 0.00 70 1008.8
20260510075005 14 45 4.8 9.7 0.00 0.03 0.00 70 1008.8
20260510074523 14 324 3.2 9.7 0.00 0.03 0.00 71 1008.7
20260510074010 14 317 4.8 9.7 0.00 0.05 0.00 71 1008.6
20260510073512 14 322 3.2 9.7 0.00 0.05 0.00 71 1008.6
20260510073026 15 333 1.6 6.4 0.00 0.05 0.00 72 1008.5
20260510072506 15 309 1.6 6.4 0.00 0.05 0.00 72 1008.5
20260510072012 15 316 3.2 8.0 0.00 0.05 0.00 73 1008.7
20260510071526 15 288 3.2 9.7 0.00 0.05 0.00 72 1008.6
20260510071008 15 284 3.2 12.9 0.00 0.05 0.00 72 1008.5
20260510070510 15 281 4.8 12.9 0.00 0.05 0.00 72 1008.4
20260510070032 15 302 6.4 12.9 0.00 0.08 0.00 72 1008.3
20260510065511 15 321 4.8 9.7 0.00 0.08 0.00 72 1008.2
20260510065008 15 301 4.8 9.7 0.00 0.08 0.00 72 1008.1
20260510064531 15 285 3.2 11.3 0.00 0.08 0.00 72 1008.2
20260510064005 15 302 3.2 11.3 0.00 0.08 0.00 72 1008.2
20260510063508 16 293 1.6 9.7 0.00 0.08 0.00 72 1008.2
20260510063023 16 300 3.2 8.0 0.00 0.08 0.00 72 1008.3
20260510062507 16 261 3.2 8.0 0.00 0.08 0.00 72 1008.2
20260510062007 16 269 3.2 12.9 0.00 0.08 0.00 71 1008.2
20260510061525 16 293 3.2 12.9 0.00 0.08 0.00 71 1008.2
20260510061008 16 309 4.8 11.3 0.00 0.08 0.00 70 1008.2
20260510060509 16 297 3.2 9.7 0.00 0.08 0.00 70 1008.2
20260510060011 16 289 4.8 12.9 0.00 0.08 0.00 70 1008.1
20260510055503 16 272 4.8 12.9 0.00 0.08 0.00 70 1008.1
20260510055003 16 219 6.4 12.9 0.00 0.08 0.00 70 1008.1
20260510054518 16 302 4.8 14.5 0.00 0.08 0.00 70 1008.1
20260510054008 16 284 4.8 14.5 0.00 0.08 0.00 70 1008.0
20260510053506 16 302 6.4 14.5 0.00 0.08 0.00 70 1008.0
20260510053025 16 302 4.8 11.3 0.00 0.08 0.00 71 1007.9
20260510052508 16 262 4.8 9.7 0.00 0.08 0.00 71 1007.9
20260510052007 16 266 4.8 8.0 0.00 0.08 0.00 72 1007.8
20260510051526 16 232 3.2 8.0 0.00 0.08 0.00 72 1007.8
20260510051003 15 273 3.2 8.0 0.00 0.08 0.00 72 1007.7
20260510050503 15 214 0.0 3.2 0.00 0.10 0.00 72 1007.7
20260510050008 16 243 0.0 3.2 0.00 0.10 0.00 71 1007.7
20260510045504 16 238 0.0 4.8 0.00 0.10 0.00 71 1007.6
20260510045007 16 236 0.0 4.8 0.00 0.10 0.00 70 1007.5
20260510044517 16 252 1.6 6.4 0.00 0.10 0.00 70 1007.5
20260510044003 16 267 1.6 8.0 0.00 0.10 0.00 69 1007.5
20260510043503 16 246 4.8 11.3 0.00 0.10 0.00 69 1007.4
20260510043018 16 307 3.2 11.3 0.00 0.10 0.00 69 1007.3
20260510042504 16 307 3.2 8.0 0.00 0.10 0.00 70 1007.2
20260510042010 16 279 4.8 8.0 0.00 0.10 0.00 69 1007.1
20260510041522 16 317 3.2 9.7 0.00 0.10 0.00 69 1007.1
20260510041007 16 290 3.2 9.7 0.00 0.10 0.00 68 1007.2
20260510040506 16 293 3.2 9.7 0.00 0.10 0.00 68 1007.1
20260510040024 16 274 3.2 9.7 0.00 0.10 0.00 68 1007.1
20260510035507 16 282 1.6 6.4 0.00 0.10 0.10 68 1007.1
20260510035003 16 264 1.6 9.7 0.00 0.10 0.10 68 1007.1
20260510034516 17 259 1.6 9.7 0.00 0.10 0.10 67 1006.9
20260510034004 17 297 3.2 9.7 0.00 0.10 0.10 67 1006.9
20260510033503 17 291 3.2 9.7 0.00 0.10 0.10 67 1006.9
20260510033019 17 278 3.2 8.0 0.00 0.10 0.10 67 1006.8
20260510032506 17 250 3.2 8.0 0.00 0.10 0.10 67 1006.7
20260510032006 17 270 1.6 8.0 0.00 0.13 0.10 67 1006.7
20260510031519 17 277 1.6 8.0 0.00 0.13 0.10 67 1006.7
20260510031005 16 265 1.6 8.0 0.00 0.13 0.10 67 1006.8
20260510030508 16 259 4.8 8.0 0.00 0.13 0.10 67 1006.7
20260510030026 16 258 1.6 8.0 0.00 0.13 0.10 67 1006.7
20260510025507 16 257 1.6 8.0 0.00 0.13 0.10 67 1006.8
20260510025007 16 270 1.6 6.4 0.00 0.13 0.10 67 1006.7
20260510024524 16 238 3.2 6.4 0.00 0.13 0.10 67 1006.7
20260510024008 16 259 0.0 3.2 0.00 0.15 0.10 67 1006.8
20260510023510 16 267 0.0 1.6 0.00 0.15 0.10 67 1006.7
20260510023027 17 281 0.0 0.0 0.00 0.15 0.10 66 1006.7
20260510022505 17 281 0.0 0.0 0.00 0.15 0.10 65 1006.5
20260510022006 17 311 0.0 3.2 0.00 0.15 0.10 65 1006.5
20260510021522 17 259 0.0 4.8 0.00 0.15 0.10 64 1006.4
20260510021007 17 300 1.6 4.8 0.00 0.15 0.10 64 1006.4
20260510020506 17 302 1.6 4.8 0.00 0.15 0.10 64 1006.4
20260510020022 17 352 0.0 4.8 0.00 0.15 0.10 63 1006.2
20260510015505 17 258 0.0 4.8 0.00 0.15 0.10 63 1006.2
20260510015010 18 234 0.0 3.2 0.00 0.15 0.10 62 1006.1
20260510014522 18 252 0.0 8.0 0.00 0.15 0.10 62 1006.0
20260510014006 18 207 0.0 8.0 0.00 0.18 0.10 61 1005.8
20260510013507 18 278 1.6 6.4 0.00 0.18 0.10 61 1005.8
20260510013026 18 304 0.0 6.4 0.00 0.18 0.10 60 1005.8
20260510012508 18 266 1.6 9.7 0.00 0.18 0.10 60 1005.7
20260510012009 18 252 3.2 9.7 0.00 0.18 0.10 59 1005.6
20260510011528 18 257 3.2 8.0 0.00 0.18 0.10 59 1005.6
20260510011011 18 227 3.2 8.0 0.00 0.18 0.10 60 1005.5
20260510010503 18 240 1.6 8.0 0.00 0.18 0.10 60 1005.3
20260510010017 19 283 1.6 12.9 0.00 0.18 0.10 60 1005.3
20260510005507 19 257 3.2 12.9 0.00 0.18 0.10 59 1005.2
20260510005006 19 260 1.6 6.4 0.00 0.18 0.10 59 1005.2
20260510004524 19 281 1.6 8.0 0.00 0.18 0.10 58 1005.3
20260510004009 19 217 3.2 8.0 0.00 0.18 0.10 58 1005.1
20260510003507 19 227 3.2 8.0 0.00 0.18 0.10 58 1005.2
20260510003022 19 271 3.2 8.0 0.00 0.18 0.10 58 1005.1
20260510002507 20 291 1.6 9.7 0.00 0.18 0.10 58 1005.0
20260510002007 20 266 3.2 9.7 0.00 0.18 0.10 58 1004.8
20260510001527 20 200 1.6 8.0 0.00 0.18 0.10 57 1004.8
20260510001007 20 257 3.2 8.0 0.00 0.18 0.10 56 1004.8
20260510000508 20 260 1.6 17.7 0.00 0.18 0.10 56 1004.8
20260510000034 20 300 4.8 17.7 0.00 0.18 0.10 55 1004.8
20260509235509 20 281 4.8 14.5 0.00 0.18 0.10 55 1004.7
20260509235010 20 245 3.2 12.9 0.00 0.20 0.10 55 1004.6
20260509234510 21 251 6.4 12.9 0.00 0.20 0.10 54 1004.6
20260509234001 21 258 3.2 16.1 0.00 0.20 0.10 54 1004.6
20260509233502 21 252 4.8 16.1 0.00 0.20 0.10 55 1004.6
20260509233006 21 270 4.8 14.5 0.00 0.20 0.10 54 1004.6
20260509232503 21 33 6.4 14.5 0.00 0.20 0.10 54 1004.5
20260509232007 21 238 6.4 12.9 0.00 0.20 0.10 53 1004.4
20260509231512 21 173 4.8 12.9 0.00 0.20 0.10 53 1004.4
20260509231002 21 224 6.4 16.1 0.00 0.20 0.10 53 1004.5
20260509230502 21 231 6.4 17.7 0.00 0.20 0.10 52 1004.5
20260509230008 21 300 4.8 17.7 0.00 0.20 0.10 52 1004.5
20260509225502 21 218 11.3 19.3 0.00 0.20 0.10 52 1004.3
20260509225002 21 284 6.4 19.3 0.00 0.20 0.10 50 1004.3
20260509224527 22 247 8.0 22.5 0.00 0.20 0.10 50 1004.3
20260509224005 21 297 9.7 22.5 0.00 0.20 0.10 50 1004.3
20260509223504 22 347 12.9 22.5 0.00 0.20 0.10 49 1004.3
20260509223004 22 317 6.4 16.1 0.00 0.20 0.10 50 1004.3
20260509222502 22 280 8.0 20.9 0.00 0.20 0.10 49 1004.2
20260509222003 22 232 4.8 20.9 0.00 0.20 0.10 50 1004.1
20260509221503 22 41 8.0 25.7 0.00 0.20 0.10 50 1004.2
20260509221003 22 96 11.3 25.7 0.00 0.20 0.10 49 1004.2
20260509220507 22 213 9.7 25.7 0.00 0.20 0.10 50 1004.2
20260509220006 22 297 8.0 25.7 0.00 0.20 0.10 50 1004.1
20260509215504 22 237 6.4 19.3 0.00 0.20 0.10 53 1004.0
20260509215002 22 207 6.4 19.3 0.00 0.20 0.10 50 1003.9
20260509214508 22 269 9.7 30.6 0.00 0.20 0.10 51 1004.0
20260509214002 22 268 8.0 30.6 0.00 0.20 0.10 50 1004.3
20260509213508 22 319 6.4 22.5 0.00 0.20 0.10 50 1004.1
20260509213016 22 211 4.8 22.5 0.00 0.20 0.10 52 1004.2
20260509212506 22 238 9.7 22.5 0.00 0.20 0.10 51 1004.3
20260509212008 22 233 6.4 20.9 0.00 0.20 0.10 53 1004.4
20260509211508 22 281 8.0 22.5 0.00 0.20 0.10 52 1004.6
20260509211003 22 260 8.0 22.5 0.00 0.20 0.10 53 1004.4
20260509210502 22 235 9.7 22.5 0.00 0.20 0.10 52 1004.4
20260509210006 22 172 4.8 19.3 0.00 0.20 0.10 53 1004.5
20260509205503 22 240 6.4 20.9 0.00 0.20 0.10 54 1004.4
20260509205003 21 265 8.0 22.5 0.00 0.20 0.10 53 1004.4